RH100 DFFD-DIAP

Flight info

Callsign RH100
Flight time N/A
Altitude 43000
Route TUMU1N TUMUT UG859 IDORO DCT ZANOU VADA2D
Aircraft C750/M-V/N

Departure

Time 2026-04-14 01:34
Airport Ouagadougou Thomas Sankara International Airport (DFFD)

Arrival

Time N/A
Airport Félix-Houphouët-Boigny International Airport (DIAP)
Time Latitude Longitude Altitude Speed Heading
2026-04-14 01:25 12.35059 -1.51575 1030 ft 0 kts 124°
2026-04-14 01:27 12.35057 -1.51574 1030 ft 0 kts 124°
2026-04-14 01:27 12.35054 -1.51568 1030 ft 1 kts 124°
2026-04-14 01:27 12.35039 -1.51546 1030 ft 5 kts 124°
2026-04-14 01:28 12.35008 -1.51499 1030 ft 9 kts 125°
2026-04-14 01:28 12.34957 -1.51479 1031 ft 7 kts 200°
2026-04-14 01:28 12.34911 -1.51505 1031 ft 7 kts 212°
2026-04-14 01:28 12.34863 -1.51537 1033 ft 9 kts 213°
2026-04-14 01:29 12.34804 -1.51577 1035 ft 10 kts 214°
2026-04-14 01:29 12.34735 -1.51624 1038 ft 13 kts 213°
2026-04-14 01:29 12.34648 -1.51683 1039 ft 15 kts 212°
2026-04-14 01:29 12.34558 -1.51743 1041 ft 14 kts 213°
2026-04-14 01:30 12.34477 -1.51795 1042 ft 13 kts 212°
2026-04-14 01:30 12.34403 -1.51844 1044 ft 11 kts 214°
2026-04-14 01:30 12.34337 -1.51890 1044 ft 12 kts 213°
2026-04-14 01:30 12.34261 -1.51940 1043 ft 13 kts 214°
2026-04-14 01:31 12.34226 -1.52008 1042 ft 6 kts 234°
2026-04-14 01:31 12.34191 -1.52001 1042 ft 6 kts 107°
2026-04-14 01:31 12.34200 -1.51967 1042 ft 4 kts 39°
2026-04-14 01:31 12.34229 -1.51958 1043 ft 4 kts 22°
2026-04-14 01:32 12.34242 -1.51950 1043 ft 0 kts 31°
2026-04-14 01:33 12.34248 -1.51947 1043 ft 7 kts 31°
2026-04-14 01:34 12.34389 -1.51852 1044 ft 46 kts 33°
2026-04-14 01:34 12.34969 -1.51470 1031 ft 146 kts 31°
2026-04-14 01:34 12.35927 -1.50812 1396 ft 180 kts 40°
2026-04-14 01:34 12.36516 -1.49790 2467 ft 177 kts 72°
2026-04-14 01:35 12.36820 -1.48556 3298 ft 188 kts 74°
2026-04-14 01:35 12.37126 -1.47228 4107 ft 206 kts 73°
2026-04-14 01:35 12.37485 -1.45737 4881 ft 240 kts 73°
2026-04-14 01:35 12.37948 -1.43877 4997 ft 291 kts 73°
2026-04-14 01:36 12.38447 -1.41898 4959 ft 288 kts 73°
2026-04-14 01:36 12.38946 -1.39935 4949 ft 283 kts 73°
2026-04-14 01:36 12.39433 -1.37989 4946 ft 278 kts 73°
2026-04-14 01:36 12.39752 -1.36719 4945 ft 276 kts 73°